Location: Avenches
(46.8809°N, 7.0410°E)
Time: 12:59:02
(UTC+00:00)

X-37B - Pass Details

Date: 14 March 2021
Orbit: 380 x 394 km, 45.0° (Epoch: 07 April)

Event Time Altitude Azimuth Distance (km) Brightness Sun altitude
Rises 19:32:24 0° 254° (WSW) 2,270 5.4 -20.3°
Reaches altitude 10° 19:34:29 10° 250° (WSW) 1,419 4.1 -20.7°
Enters shadow 19:36:47 40° 225° (SW) 595 1.6 -21.0°
